Total_Precipitation_Accumulation
0.98 0.99 0.87 0.83 0.83 0.80 0.79 0.83 0.91 0.98 1.07 1.14 1.18 1.21 1.23 1.32 1.38 1.49 1.63 1.78 1.81 1.82 1.71 1.74 1.85 1.91 2.08 2.13 2.10 2.06 2.03 1.94 1.82 1.73 1.49 1.26 1.25 1.33 1.40 1.32 1.35 1.35 1.18
1.06 0.97 0.88 0.90 0.91 0.93 0.90 0.85 0.89 0.94 0.94 1.03 1.15 1.13 1.12 1.17 1.26 1.36 1.46 1.52 1.63 1.60 1.50 1.52 1.63 1.69 1.83 1.95 2.05 1.96 1.96 1.91 1.91 1.86 1.64 1.42 1.35 1.36 1.44 1.40 1.29 1.27 1.25
1.06 1.07 0.95 0.83 0.85 0.88 0.88 0.82 0.79 0.83 0.87 0.98 1.12 1.24 1.16 1.06 1.16 1.25 1.29 1.32 1.34 1.29 1.28 1.33 1.38 1.44 1.57 1.68 1.78 1.87 1.89 1.81 1.91 1.91 1.70 1.48 1.36 1.32 1.36 1.34 1.30 1.36 1.26
1.12 1.07 1.01 0.94 0.95 0.87 0.78 0.75 0.76 0.74 0.70 0.75 0.90 1.01 1.07 1.04 1.01 1.02 1.06 1.21 1.22 1.13 1.04 1.04 1.06 1.08 1.20 1.33 1.44 1.59 1.76 1.88 1.96 1.99 1.84 1.56 1.38 1.33 1.38 1.43 1.44 1.38 1.39
1.21 1.18 1.09 1.01 0.91 0.82 0.74 0.65 0.66 0.58 0.56 0.63 0.79 0.96 1.03 1.03 1.05 1.05 0.99 1.04 1.10 1.12 1.05 0.93 0.86 0.85 0.95 1.03 1.13 1.39 1.59 1.76 1.90 1.97 1.89 1.72 1.53 1.44 1.39 1.39 1.48 1.59 1.59
1.02 1.05 1.09 1.04 0.87 0.78 0.68 0.59 0.56 0.53 0.53 0.55 0.64 0.79 0.95 0.92 1.08 1.13 1.06 0.98 0.98 0.99 0.99 0.97 0.96 0.91 0.79 0.76 0.82 0.99 1.23 1.44 1.63 1.76 1.79 1.66 1.49 1.45 1.49 1.49 1.48 1.55 1.61
0.87 0.89 0.93 0.91 0.76 0.69 0.57 0.50 0.50 0.51 0.53 0.52 0.58 0.71 0.84 0.98 1.01 0.90 0.97 0.99 0.96 0.97 0.95 0.94 0.96 0.95 0.99 0.89 0.83 0.82 0.85 1.02 1.27 1.49 1.53 1.49 1.55 1.47 1.43 1.38 1.36 1.36 1.37
0.72 0.73 0.72 0.72 0.67 0.59 0.49 0.45 0.45 0.47 0.51 0.51 0.53 0.58 0.66 0.84 0.90 0.79 0.98 1.01 1.02 1.03 1.00 1.01 1.05 1.07 1.03 1.14 1.11 1.01 0.94 0.93 1.03 0.98 1.09 1.37 1.49 1.50 1.49 1.50 1.53 1.45 1.38
0.51 0.58 0.62 0.63 0.59 0.54 0.49 0.53 0.55 0.53 0.51 0.49 0.48 0.49 0.53 0.61 0.71 0.68 0.82 0.97 1.08 1.08 0.98 0.96 1.02 1.04 1.24 1.28 1.19 1.16 1.08 1.02 1.17 1.18 1.20 1.26 1.34 1.35 1.35 1.43 1.50 1.45 1.39
0.33 0.39 0.46 0.52 0.55 0.58 0.68 0.74 0.73 0.68 0.60 0.52 0.48 0.46 0.50 0.52 0.65 0.53 0.65 0.82 1.00 1.13 1.06 0.99 1.14 1.10 1.11 1.06 1.02 1.21 1.18 1.07 0.98 0.95 0.96 1.02 1.04 1.10 1.17 1.20 1.35 1.38 1.32
0.19 0.24 0.34 0.49 0.56 0.65 0.78 0.81 0.76 0.68 0.59 0.54 0.50 0.46 0.47 0.55 0.69 0.63 0.69 0.79 0.92 1.03 1.06 1.05 1.01 1.08 0.92 0.87 0.92 1.06 1.21 1.16 1.10 1.12 1.05 0.99 0.97 0.97 0.93 1.00 1.15 1.25 1.28
0.19 0.23 0.30 0.40 0.52 0.65 0.75 0.74 0.72 0.72 0.65 0.58 0.57 0.54 0.55 0.63 0.70 0.70 0.71 0.77 0.85 0.93 0.93 0.83 0.81 0.88 0.74 0.70 0.69 0.82 1.00 1.03 1.03 1.09 1.06 0.99 0.93 0.90 0.88 0.89 0.98 1.06 1.10
0.18 0.18 0.20 0.28 0.42 0.59 0.67 0.68 0.68 0.70 0.68 0.64 0.61 0.58 0.58 0.63 0.73 0.83 0.72 0.64 0.63 0.71 0.74 0.73 0.65 0.62 0.60 0.56 0.59 0.69 0.75 0.89 1.02 1.04 0.94 0.87 0.87 0.90 0.91 0.90 0.88 0.92 0.96
0.18 0.19 0.17 0.18 0.23 0.32 0.39 0.46 0.53 0.58 0.59 0.59 0.59 0.60 0.61 0.61 0.59 0.65 0.66 0.61 0.55 0.54 0.53 0.46 0.44 0.47 0.53 0.53 0.53 0.55 0.61 0.83 1.00 0.98 0.90 0.84 0.86 0.90 0.98 1.01 0.98 0.93 0.94
0.19 0.20 0.20 0.22 0.25 0.26 0.28 0.32 0.36 0.39 0.46 0.52 0.52 0.54 0.53 0.55 0.55 0.60 0.60 0.60 0.64 0.67 0.68 0.58 0.52 0.50 0.50 0.53 0.54 0.58 0.70 0.81 0.91 0.86 0.87 0.84 0.85 0.92 0.97 1.02 1.09 1.07 0.99
0.17 0.16 0.16 0.17 0.20 0.22 0.23 0.26 0.28 0.29 0.35 0.37 0.38 0.38 0.36 0.42 0.51 0.51 0.52 0.54 0.57 0.65 0.70 0.70 0.69 0.67 0.65 0.64 0.63 0.59 0.60 0.67 0.76 0.82 0.82 0.84 0.84 0.85 0.87 0.91 0.99 1.04 1.02
0.15 0.15 0.14 0.14 0.17 0.20 0.20 0.23 0.26 0.25 0.23 0.22 0.25 0.29 0.29 0.31 0.34 0.38 0.44 0.50 0.53 0.58 0.62 0.64 0.65 0.62 0.61 0.60 0.58 0.56 0.54 0.54 0.62 0.72 0.82 0.89 0.91 0.91 0.90 0.87 0.86 0.89 0.87
0.16 0.18 0.18 0.20 0.21 0.19 0.20 0.24 0.27 0.29 0.25 0.18 0.18 0.22 0.24 0.26 0.27 0.28 0.30 0.36 0.36 0.39 0.47 0.53 0.54 0.53 0.52 0.52 0.49 0.47 0.47 0.49 0.52 0.57 0.66 0.78 0.93 1.03 1.03 1.01 0.97 0.96 0.94
0.16 0.16 0.19 0.23 0.23 0.23 0.25 0.29 0.29 0.28 0.25 0.21 0.19 0.19 0.22 0.24 0.27 0.31 0.29 0.26 0.26 0.26 0.30 0.36 0.39 0.40 0.42 0.42 0.43 0.44 0.45 0.47 0.50 0.53 0.55 0.59 0.71 0.86 0.97 1.02 1.09 1.19 1.17
0.18 0.21 0.21 0.21 0.23 0.26 0.26 0.27 0.26 0.24 0.23 0.21 0.20 0.21 0.24 0.25 0.24 0.24 0.24 0.26 0.27 0.29 0.29 0.31 0.33 0.34 0.38 0.41 0.42 0.43 0.44 0.45 0.48 0.52 0.53 0.57 0.64 0.73 0.82 0.91 0.98 1.06 1.12
0.18 0.20 0.21 0.20 0.19 0.21 0.21 0.21 0.22 0.21 0.20 0.19 0.17 0.18 0.22 0.24 0.25 0.24 0.24 0.25 0.27 0.29 0.29 0.29 0.31 0.33 0.35 0.40 0.49 0.53 0.50 0.48 0.50 0.55 0.61 0.64 0.66 0.71 0.75 0.82 0.89 0.96 1.02
0.18 0.18 0.17 0.16 0.18 0.19 0.20 0.21 0.23 0.24 0.24 0.22 0.21 0.19 0.21 0.23 0.25 0.24 0.23 0.23 0.24 0.25 0.27 0.29 0.29 0.29 0.32 0.37 0.47 0.58 0.63 0.61 0.57 0.60 0.67 0.71 0.72 0.74 0.77 0.82 0.88 0.95 0.97
0.16 0.18 0.18 0.17 0.18 0.19 0.21 0.23 0.23 0.24 0.26 0.26 0.27 0.25 0.23 0.23 0.22 0.21 0.21 0.23 0.25 0.26 0.27 0.28 0.28 0.29 0.31 0.36 0.43 0.50 0.56 0.63 0.68 0.72 0.76 0.79 0.80 0.80 0.82 0.84 0.86 0.93 0.96
0.14 0.15 0.18 0.20 0.20 0.22 0.24 0.24 0.24 0.23 0.24 0.24 0.24 0.25 0.24 0.24 0.23 0.21 0.21 0.23 0.26 0.27 0.29 0.31 0.32 0.32 0.33 0.37 0.40 0.44 0.48 0.53 0.56 0.59 0.67 0.76 0.79 0.80 0.84 0.85 0.86 0.88 0.95
0.13 0.13 0.16 0.19 0.20 0.21 0.25 0.28 0.30 0.27 0.24 0.23 0.23 0.23 0.23 0.24 0.25 0.23 0.23 0.24 0.26 0.29 0.29 0.29 0.30 0.33 0.37 0.37 0.39 0.44 0.57 0.61 0.58 0.58 0.62 0.70 0.74 0.77 0.84 0.90 0.97 1.02 1.01
0.16 0.15 0.16 0.18 0.20 0.21 0.24 0.28 0.33 0.34 0.31 0.27 0.27 0.28 0.28 0.27 0.28 0.28 0.28 0.28 0.29 0.31 0.32 0.34 0.35 0.36 0.39 0.42 0.42 0.48 0.56 0.57 0.58 0.64 0.65 0.67 0.72 0.76 0.84 0.94 0.99 1.05 1.10